Terminal Aerodrome Forecast
Issued by NWS Austin/San Antonio, TX

Home | Current Version | Previous Version | Text Only | Print | Product List | Glossary On
Versions: 1 2 3 4 5 6 7 8 9 10 11 12 13 14 15 16 17 18 19 20 21
000
FTUS44 KEWX 281500 AAA
TAFAUS
TAF AMD
KAUS 281553Z 2816/2918 34009KT 5SM -RA BR OVC045
     FM281800 36012KT P6SM BKN050
     FM282300 03005KT P6SM SCT200
     FM290400 00000KT P6SM SKC=

USA.gov is the U.S. government's official web portal to all federal, state and local government web resources and services.